Red Bluff Municipal Airport
KRBL : now visible

Airfield :











YOU CAN JOIN US ON...

 
LOGIN :

Register | Disclaimer

   EN    FR    IT 

 









Legend :    VFR   Marginal VFR   IFR   Intensive IFR   Very Intensive IFR
Visi :
Ceiling :
>= 8 km
>= 3000ft
5 to 8 km
1000 to 3000 ft
1500m to 5 km
500 to 1000 ft
800 to 1500m
200 to 500 ft
< 800m
< 200 ft
Symbols :   Thunderstorms  Fog  Heavy snow  Heavy precipitations  Wind > 20 kt






- Airport Elevation : 352 ft


KRBL - Red Bluff Municipal

CURRENT METAR :
  • 241454Z AUTO 34004KT 10SM CLR 21/02 A2991 RMK AO2 SLP126 T02110017 53010

EXPIRED METARs :
  • 241354Z AUTO 34006KT 10SM CLR 18/02 A2990 RMK AO2 SLP122 T01830017
  • 241254Z AUTO 34006KT 10SM CLR 21/02 A2989 RMK AO2 SLP116 T02060017

TAF KRBL
Valid from the 24 at 12:00 until the 25 at 12:00 UTC


241125Z 2412/2512 VRB05KT P6SM FEW250
TEMPO 2414/2418 5SM HZ FU
FM242100 16010KT P6SM SKC
KZOA FIR / North America



MET'MAP, your aeronautical weather chart ! - Copyright ORBIFLY December 2007 - Disclaimer

ORBIFLY MET'MAP TEAM :

Programming & Development : Alexandra Zaïnal
Concept & original design : Baudouin d'Aumeries
Assistance for programming : Marc-Olivier Méhu
Technical & hardware support : Manuel Goepfert

Contact : metmap@orbifly.com




SOURCES & CREDITS :

   NOAA       Earth
Advisory